N104WT KMIA-KMLB

Flight info

Callsign N104WT
Flight time 0h 38m
Altitude 3000
Route KMIA/08R N0408F170 DCT DORRL/N0401F160 DCT BENNS/N0395F150 DCT VALKA DCT KMLB/09R
Aircraft SR22/L-SR22/L

Departure

Time 2026-04-22 13:41
Airport Miami International Airport (KMIA)

Arrival

Time 2026-04-22 14:20
Airport Melbourne Orlando International Airport (KMLB)
Time Latitude Longitude Altitude Speed Heading
2026-04-22 13:27 25.79696 -80.28705 15 ft 0 kts 77°
2026-04-22 13:32 25.79695 -80.28705 15 ft 0 kts 77°
2026-04-22 13:34 25.79692 -80.28697 15 ft 1 kts 137°
2026-04-22 13:34 25.79673 -80.28705 15 ft 6 kts 222°
2026-04-22 13:34 25.79640 -80.28758 16 ft 9 kts 268°
2026-04-22 13:35 25.79697 -80.28813 16 ft 15 kts 359°
2026-04-22 13:35 25.79806 -80.28819 16 ft 9 kts 358°
2026-04-22 13:35 25.79874 -80.28822 17 ft 3 kts 356°
2026-04-22 13:35 25.79876 -80.28822 17 ft 0 kts 356°
2026-04-22 13:37 25.79893 -80.28823 17 ft 8 kts 356°
2026-04-22 13:37 25.79973 -80.28827 18 ft 12 kts 357°
2026-04-22 13:37 25.80009 -80.28925 17 ft 19 kts 266°
2026-04-22 13:38 25.80003 -80.29084 17 ft 22 kts 266°
2026-04-22 13:38 25.80024 -80.29330 14 ft 0 kts 340°
2026-04-22 13:40 25.80032 -80.29333 14 ft 6 kts 351°
2026-04-22 13:40 25.80088 -80.29271 15 ft 21 kts 71°
2026-04-22 13:41 25.80126 -80.28843 17 ft 87 kts 86°
2026-04-22 13:41 25.80166 -80.28078 186 ft 102 kts 83°
2026-04-22 13:41 25.80253 -80.27301 470 ft 103 kts 81°
2026-04-22 13:41 25.80485 -80.26542 697 ft 107 kts 56°
2026-04-22 13:42 25.81161 -80.26236 836 ft 115 kts 348°
2026-04-22 13:42 25.81917 -80.26491 1117 ft 111 kts 341°
2026-04-22 13:42 25.82674 -80.26759 1296 ft 116 kts 343°
2026-04-22 13:42 25.83458 -80.26961 1462 ft 121 kts 346°
2026-04-22 13:43 25.84346 -80.27203 1599 ft 138 kts 345°
2026-04-22 13:43 25.85307 -80.27482 1754 ft 147 kts 343°
2026-04-22 13:43 25.86278 -80.27895 1925 ft 151 kts 335°
2026-04-22 13:43 25.87264 -80.28314 2091 ft 154 kts 342°
2026-04-22 13:44 25.88284 -80.28676 2325 ft 151 kts 340°
2026-04-22 13:44 25.89272 -80.29077 2522 ft 153 kts 338°
2026-04-22 13:44 25.90312 -80.29538 2296 ft 177 kts 339°
2026-04-22 13:44 25.91478 -80.30000 2120 ft 178 kts 341°
2026-04-22 13:45 25.92635 -80.30380 1988 ft 172 kts 348°
2026-04-22 13:45 25.93780 -80.30637 2062 ft 160 kts 347°
2026-04-22 13:45 25.94900 -80.30920 2078 ft 167 kts 346°
2026-04-22 13:45 25.96024 -80.31255 2111 ft 171 kts 346°
2026-04-22 13:46 25.97183 -80.31476 2188 ft 169 kts 353°
2026-04-22 13:46 25.98350 -80.31587 2316 ft 167 kts 355°
2026-04-22 13:46 25.99504 -80.31673 2432 ft 166 kts 356°
2026-04-22 13:46 26.00660 -80.31761 2495 ft 169 kts 355°
2026-04-22 13:47 26.01849 -80.31851 2498 ft 173 kts 355°
2026-04-22 13:47 26.03058 -80.31942 2502 ft 175 kts 355°
2026-04-22 13:47 26.04277 -80.32036 2506 ft 176 kts 355°
2026-04-22 13:47 26.05503 -80.32132 2508 ft 177 kts 356°
2026-04-22 13:48 26.06733 -80.32228 2510 ft 177 kts 355°
2026-04-22 13:48 26.07965 -80.32324 2508 ft 177 kts 355°
2026-04-22 13:48 26.09194 -80.32418 2508 ft 177 kts 355°
2026-04-22 13:48 26.10429 -80.32515 2509 ft 178 kts 355°
2026-04-22 13:49 26.11648 -80.32611 2509 ft 178 kts 355°
2026-04-22 13:49 26.12882 -80.32707 2509 ft 178 kts 355°
2026-04-22 13:49 26.14117 -80.32803 2509 ft 178 kts 355°
2026-04-22 13:49 26.15353 -80.32901 2510 ft 178 kts 356°
2026-04-22 13:50 26.16587 -80.32997 2509 ft 178 kts 355°
2026-04-22 13:50 26.17827 -80.33093 2509 ft 178 kts 355°
2026-04-22 13:50 26.19061 -80.33191 2510 ft 178 kts 355°
2026-04-22 13:50 26.20297 -80.33286 2509 ft 178 kts 355°
2026-04-22 13:51 26.21532 -80.33384 2508 ft 178 kts 356°
2026-04-22 13:51 26.22750 -80.33477 2508 ft 177 kts 355°
2026-04-22 13:51 26.23983 -80.33574 2509 ft 178 kts 355°
2026-04-22 13:51 26.25217 -80.33673 2508 ft 178 kts 355°
2026-04-22 13:52 26.26449 -80.33770 2508 ft 178 kts 355°
2026-04-22 13:52 26.27683 -80.33867 2508 ft 178 kts 355°
2026-04-22 13:52 26.28915 -80.33963 2508 ft 178 kts 355°
2026-04-22 13:52 26.30148 -80.34059 2508 ft 177 kts 355°
2026-04-22 13:53 26.31380 -80.34156 2508 ft 177 kts 355°
2026-04-22 13:53 26.32612 -80.34253 2508 ft 178 kts 355°
2026-04-22 13:53 26.33847 -80.34349 2508 ft 178 kts 356°
2026-04-22 13:53 26.35080 -80.34445 2508 ft 178 kts 355°
2026-04-22 13:54 26.36316 -80.34543 2509 ft 178 kts 356°
2026-04-22 13:54 26.37551 -80.34640 2508 ft 178 kts 355°
2026-04-22 13:54 26.38785 -80.34738 2509 ft 178 kts 355°
2026-04-22 13:54 26.40022 -80.34834 2508 ft 178 kts 355°
2026-04-22 13:55 26.41257 -80.34931 2508 ft 178 kts 355°
2026-04-22 13:55 26.42490 -80.35027 2507 ft 177 kts 355°
2026-04-22 13:55 26.43725 -80.35124 2506 ft 178 kts 356°
2026-04-22 13:55 26.44945 -80.35220 2506 ft 177 kts 355°
2026-04-22 13:56 26.46175 -80.35318 2507 ft 177 kts 355°
2026-04-22 13:56 26.47406 -80.35415 2506 ft 177 kts 355°
2026-04-22 13:56 26.48636 -80.35511 2506 ft 177 kts 355°
2026-04-22 13:56 26.49865 -80.35609 2506 ft 177 kts 355°
2026-04-22 13:57 26.51098 -80.35708 2507 ft 178 kts 355°
2026-04-22 13:57 26.52333 -80.35802 2506 ft 178 kts 355°
2026-04-22 13:57 26.53568 -80.35899 2506 ft 177 kts 355°
2026-04-22 13:57 26.54799 -80.35998 2505 ft 177 kts 355°
2026-04-22 13:58 26.56016 -80.36092 2505 ft 177 kts 355°
2026-04-22 13:58 26.57248 -80.36189 2505 ft 177 kts 355°
2026-04-22 13:58 26.58480 -80.36286 2506 ft 177 kts 356°
2026-04-22 13:58 26.59713 -80.36384 2505 ft 177 kts 355°
2026-04-22 13:59 26.60945 -80.36480 2505 ft 177 kts 356°
2026-04-22 13:59 26.62177 -80.36579 2505 ft 177 kts 355°
2026-04-22 13:59 26.63412 -80.36675 2504 ft 177 kts 355°
2026-04-22 13:59 26.64643 -80.36773 2504 ft 177 kts 355°
2026-04-22 14:00 26.65858 -80.36869 2505 ft 177 kts 355°
2026-04-22 14:00 26.67089 -80.36965 2504 ft 178 kts 356°
2026-04-22 14:00 26.68323 -80.37063 2506 ft 178 kts 355°
2026-04-22 14:00 26.69555 -80.37163 2505 ft 178 kts 354°
2026-04-22 14:01 26.70735 -80.37554 2505 ft 178 kts 337°
2026-04-22 14:01 26.71890 -80.38058 2506 ft 178 kts 340°
2026-04-22 14:01 26.73052 -80.38536 2504 ft 178 kts 339°
2026-04-22 14:01 26.74212 -80.39020 2505 ft 178 kts 339°
2026-04-22 14:02 26.75371 -80.39508 2504 ft 178 kts 339°
2026-04-22 14:02 26.76528 -80.39992 2505 ft 178 kts 339°
2026-04-22 14:02 26.77688 -80.40480 2506 ft 178 kts 339°
2026-04-22 14:02 26.78834 -80.40961 2506 ft 178 kts 339°
2026-04-22 14:03 26.79995 -80.41450 2506 ft 178 kts 339°
2026-04-22 14:03 26.81159 -80.41937 2507 ft 179 kts 339°
2026-04-22 14:03 26.82323 -80.42427 2507 ft 179 kts 339°
2026-04-22 14:03 26.83488 -80.42918 2505 ft 178 kts 339°
2026-04-22 14:04 26.84648 -80.43405 2506 ft 178 kts 339°
2026-04-22 14:04 26.85808 -80.43894 2505 ft 178 kts 339°
2026-04-22 14:04 26.86967 -80.44382 2505 ft 178 kts 339°
2026-04-22 14:04 26.88129 -80.44870 2504 ft 178 kts 339°
2026-04-22 14:05 26.89288 -80.45358 2504 ft 178 kts 339°
2026-04-22 14:05 26.90446 -80.45846 2504 ft 178 kts 339°
2026-04-22 14:05 26.92762 -80.46822 2504 ft 178 kts 339°
2026-04-22 14:06 26.93920 -80.47309 2503 ft 177 kts 339°
2026-04-22 14:06 26.95058 -80.47789 2503 ft 177 kts 339°
2026-04-22 14:06 26.96217 -80.48277 2504 ft 178 kts 339°
2026-04-22 14:06 26.97369 -80.48763 2503 ft 178 kts 339°
2026-04-22 14:07 26.98532 -80.49254 2503 ft 177 kts 339°
2026-04-22 14:07 26.99688 -80.49742 2503 ft 178 kts 339°
2026-04-22 14:07 27.00957 -80.50277 2504 ft 178 kts 339°
2026-04-22 14:07 27.02200 -80.50802 2504 ft 178 kts 339°
2026-04-22 14:08 27.03363 -80.51292 2503 ft 178 kts 339°
2026-04-22 14:08 27.04521 -80.51782 2503 ft 178 kts 339°
2026-04-22 14:08 27.05289 -80.52106 2503 ft 178 kts 339°
2026-04-22 14:08 27.06824 -80.52753 2504 ft 178 kts 339°
2026-04-22 14:09 27.07989 -80.53245 2505 ft 178 kts 339°
2026-04-22 14:09 27.09152 -80.53736 2503 ft 178 kts 339°
2026-04-22 14:09 27.10312 -80.54230 2504 ft 178 kts 339°
2026-04-22 14:09 27.11081 -80.54554 2504 ft 178 kts 339°
2026-04-22 14:10 27.12637 -80.55210 2503 ft 178 kts 339°
2026-04-22 14:10 27.13403 -80.55535 2503 ft 178 kts 339°
2026-04-22 14:10 27.14559 -80.56024 2502 ft 177 kts 339°
2026-04-22 14:10 27.16093 -80.56673 2502 ft 178 kts 339°
2026-04-22 14:11 27.16875 -80.57006 2504 ft 178 kts 339°
2026-04-22 14:11 27.18035 -80.57495 2503 ft 178 kts 339°
2026-04-22 14:11 27.19197 -80.57987 2504 ft 178 kts 339°
2026-04-22 14:11 27.20356 -80.58479 2504 ft 178 kts 339°
2026-04-22 14:12 27.21516 -80.58969 2502 ft 178 kts 339°
2026-04-22 14:12 27.22677 -80.59391 2492 ft 178 kts 351°
2026-04-22 14:12 27.23913 -80.59381 2492 ft 178 kts 358°
2026-04-22 14:12 27.25129 -80.59642 2493 ft 177 kts 345°
2026-04-22 14:13 27.27090 -80.60086 2493 ft 178 kts 350°
2026-04-22 14:13 27.29532 -80.60534 2495 ft 178 kts 350°
2026-04-22 14:13 27.33177 -80.61212 2494 ft 178 kts 350°
2026-04-22 14:13 27.38070 -80.62121 2497 ft 178 kts 350°
2026-04-22 14:14 27.42961 -80.63031 2493 ft 177 kts 350°
2026-04-22 14:14 27.47839 -80.63942 2498 ft 178 kts 350°
2026-04-22 14:14 27.52721 -80.64852 2501 ft 178 kts 350°
2026-04-22 14:14 27.57611 -80.65765 2500 ft 179 kts 350°
2026-04-22 14:15 27.62517 -80.66681 2493 ft 178 kts 350°
2026-04-22 14:15 27.67424 -80.67599 2491 ft 177 kts 350°
2026-04-22 14:15 27.72246 -80.68503 2497 ft 178 kts 350°
2026-04-22 14:15 27.77130 -80.69414 2493 ft 178 kts 350°
2026-04-22 14:16 27.82006 -80.70333 2491 ft 177 kts 350°
2026-04-22 14:16 27.86913 -80.71251 2493 ft 178 kts 350°
2026-04-22 14:16 27.91820 -80.72174 2497 ft 179 kts 350°
2026-04-22 14:16 27.96725 -80.73097 2491 ft 178 kts 350°
2026-04-22 14:17 28.01628 -80.74020 2493 ft 178 kts 350°
2026-04-22 14:17 28.06529 -80.74943 2496 ft 179 kts 350°
2026-04-22 14:17 28.08197 -80.74707 2492 ft 178 kts 26°
2026-04-22 14:17 28.09171 -80.73858 2491 ft 178 kts 49°
2026-04-22 14:18 28.09752 -80.72654 2491 ft 177 kts 72°
2026-04-22 14:18 28.09895 -80.71272 2493 ft 177 kts 88°
2026-04-22 14:18 28.09950 -80.70055 2050 ft 136 kts 86°
2026-04-22 14:18 28.10013 -80.68971 830 ft 145 kts 86°
2026-04-22 14:19 28.10053 -80.67939 315 ft 117 kts 88°
2026-04-22 14:19 28.10082 -80.67083 142 ft 100 kts 87°
2026-04-22 14:19 28.10119 -80.66339 96 ft 89 kts 85°
2026-04-22 14:19 28.10154 -80.65673 49 ft 78 kts 86°
2026-04-22 14:20 28.10190 -80.64832 32 ft 23 kts 96°